Location: Silverdale
(47.6506°N, 122.6941°W)
Time: 14:01:30
(UTC+00:00)

Altair - All Passes

Search period start: 03 October 2022 00:00
Search period end: 13 October 2022 00:00
Orbit: 1501 x 1682 km, 47.2° (Epoch: 03 October)

Date Brightness Start Highest point End Pass type
(mag) Time Alt. Az. Time Alt. Az. Time Alt. Az.
03 Oct - 10:27:07 10° SE 10:30:36 12° ESE 10:34:06 10° E visible
03 Oct - 12:24:17 10° SSW 12:33:10 43° SE 12:42:22 10° ENE visible
03 Oct - 14:27:26 10° WSW 14:37:16 80° SSE 14:47:26 10° E daylight
03 Oct - 16:32:11 10° W 16:42:15 86° S 16:52:29 10° ESE daylight
03 Oct - 18:37:03 10° WNW 18:46:49 56° SSW 18:56:36 10° SE daylight
03 Oct - 20:43:01 10° W 20:50:03 22° SW 20:57:04 10° S daylight
04 Oct - 10:03:45 10° SE 10:05:36 11° ESE 10:07:29 10° ESE visible
04 Oct - 11:59:22 10° SSW 12:08:04 40° SE 12:17:05 10° ENE visible
04 Oct - 14:02:17 10° WSW 14:12:04 78° SSE 14:22:11 10° E daylight
04 Oct - 16:06:59 10° W 16:17:00 87° S 16:27:14 10° E daylight
04 Oct - 18:11:49 10° WNW 18:21:39 59° SSW 18:31:31 10° SE daylight
04 Oct - 20:17:35 10° W 20:25:00 24° SW 20:32:24 10° S daylight
05 Oct - 11:34:27 10° SSW 11:42:58 37° SE 11:51:47 10° ENE visible
05 Oct - 13:37:08 10° WSW 13:46:52 75° SSE 13:56:56 10° ENE visible
05 Oct - 15:41:46 10° W 15:51:46 88° S 16:02:00 10° E daylight
05 Oct - 17:46:37 10° WNW 17:56:28 62° SSW 18:06:24 10° SE daylight
05 Oct - 19:52:11 10° W 19:59:56 26° SW 20:07:41 10° S daylight
06 Oct - 11:09:35 10° SSW 11:17:53 35° SE 11:26:28 10° ENE visible
06 Oct - 13:12:00 10° WSW 13:21:40 73° SSE 13:31:42 10° ENE visible
06 Oct - 15:16:34 10° W 15:26:32 88° S 15:36:45 10° E daylight
06 Oct - 17:21:24 10° WNW 17:31:17 65° SSW 17:41:17 10° SE daylight
06 Oct - 19:26:48 10° W 19:34:51 28° SW 19:42:55 10° S daylight
07 Oct - 10:44:45 10° SSW 10:52:49 32° SE 11:01:08 10° ENE visible
07 Oct - 12:46:52 10° WSW 12:56:29 70° SSE 13:06:27 10° ENE visible
07 Oct - 14:51:22 10° W 15:01:18 89° S 15:11:30 10° E daylight
07 Oct - 16:56:12 10° WNW 17:06:05 68° SSW 17:16:08 10° SE daylight
07 Oct - 19:01:27 10° WNW 19:09:46 30° SW 19:18:06 10° S daylight
08 Oct - 10:19:56 10° S 10:27:45 30° SE 10:35:47 10° ENE visible
08 Oct - 12:21:46 10° SW 12:31:18 68° SSE 12:41:13 10° ENE visible
08 Oct - 14:26:11 10° W 14:36:03 89° S 14:46:14 10° E daylight
08 Oct - 16:30:59 10° WNW 16:40:54 70° SSW 16:50:59 10° ESE daylight
08 Oct - 18:36:08 10° WNW 18:44:41 33° SW 18:53:16 10° SSE daylight
09 Oct - 09:55:11 10° S 10:02:42 27° SE 10:10:26 10° E visible
09 Oct - 11:56:40 10° SW 12:06:08 65° SSE 12:15:58 10° ENE visible
09 Oct - 14:00:59 10° W 14:10:49 88° S 14:21:00 10° E daylight
09 Oct - 16:05:47 10° WNW 16:15:41 73° SSW 16:25:48 10° ESE daylight
09 Oct - 18:10:51 10° WNW 18:19:34 35° SW 18:28:22 10° SSE daylight
10 Oct - 09:30:28 10° S 09:37:39 25° SE 09:45:02 10° E visible
10 Oct - 11:31:36 10° SW 11:40:58 62° SSE 11:50:43 10° ENE visible
10 Oct - 13:35:47 10° W 13:45:35 88° S 13:55:44 10° E visible
10 Oct - 15:40:35 10° WNW 15:50:29 75° SSW 16:00:37 10° ESE daylight
10 Oct - 17:45:34 10° WNW 17:54:28 38° SW 18:03:27 10° SSE daylight
11 Oct - 09:05:48 10° S 09:12:37 23° SE 09:19:37 10° E visible
11 Oct - 11:06:32 10° SW 11:15:49 59° SSE 11:25:28 10° ENE visible
11 Oct - 13:10:36 10° W 13:20:21 87° S 13:30:29 10° E visible
11 Oct - 15:15:24 10° WNW 15:25:16 77° SSW 15:35:25 10° ESE daylight
11 Oct - 17:20:18 10° WNW 17:29:20 40° SW 17:38:30 10° SSE daylight
11 Oct - 19:29:26 10° WSW 19:31:58 11° WSW 19:34:31 10° SW daylight
12 Oct - 08:41:12 10° S 08:47:36 21° SE 08:54:08 10° E visible
12 Oct - 10:41:30 10° SW 10:50:41 56° SSE 11:00:13 10° ENE visible
12 Oct - 12:45:25 10° W 12:55:08 87° S 13:05:14 10° E visible
12 Oct - 14:50:12 10° W 15:00:04 79° SSW 15:10:12 10° ESE daylight
12 Oct - 16:55:03 10° WNW 17:04:13 43° SW 17:13:31 10° SSE daylight
12 Oct - 19:03:05 10° W 19:06:58 13° WSW 19:10:51 10° SW daylight
